Location: Nebraska Star Party
(42.6000°N, 100.8833°W)
Time: 12:21:58
(UTC-05:00)

Amateur Radio Satellites - All Passes

Search period start: 03 July 2015 11:51
Search period end: 04 July 2015 11:51
Location: Nebraska Star Party, 42.6000°N, 100.8833°W

Satellite Date Start Highest point End Downlink Frequencies (MHz)
Time Altitude Azimuth
RS-15 03 Jul 11:54:34 12:06:07 63° 49° (NE) 12:18:10 29.354- 29.394
DOVE 4 03 Jul 11:55:12 11:56:50 12° 297° (WNW) 11:58:16 437.250
QB50P1 03 Jul 11:56:01 12:00:16 73° 75° (ENE) 12:04:30 145.935-145.965
DX 1 03 Jul 12:02:24 12:06:33 42° 99° (E) 12:10:41 434.975-435.025
CUBEBUG 2 03 Jul 12:08:49 12:12:36 33° 289° (WNW) 12:16:25 437.445
SEEDS 03 Jul 12:09:40 12:11:13 12° 297° (WNW) 12:12:35 437.485
NANOSAT C BR1 03 Jul 12:10:46 12:15:01 78° 259° (W) 12:19:16 145.865
ZACube-1 03 Jul 12:16:39 12:20:40 44° 287° (WNW) 12:24:43 437.345
DUCHIFAT 1 03 Jul 12:18:14 12:22:26 65° 259° (W) 12:26:39 145.980
POLYITAN 1 03 Jul 12:21:40 12:25:51 56° 260° (W) 12:30:02 437.675
AAUSAT CUBESAT 2 03 Jul 12:24:08 12:25:38 11° 297° (WNW) 12:26:56 437.432
UKube-1 03 Jul 12:25:13 12:29:33 71° 102° (ESE) 12:33:51 .
ISS 03 Jul 12:28:36 12:30:52 17° 353° (N) 12:33:08 145.825
Oscar 11 03 Jul 12:29:06 12:32:27 21° 293° (WNW) 12:35:42 145.826/435.025
UNISAT 6 03 Jul 12:31:14 12:34:29 20° 267° (W) 12:37:37 437.425
AISAT 03 Jul 12:34:24 12:38:44 54° 100° (E) 12:43:03 437.250
Cosmos 2499 03 Jul 12:38:29 12:45:31 68° 281° (W) 12:52:38 435.465 / 435.565
BUGSAT 1 03 Jul 12:41:03 12:45:13 54° 260° (W) 12:49:20 437.445
HUMSAT D 03 Jul 12:46:10 12:50:11 47° 287° (WNW) 12:54:11 437.325/437.525
DELFI C3 03 Jul 12:47:27 12:50:12 17° 294° (WNW) 12:52:50 145.870
QB50P2 03 Jul 12:52:20 12:55:58 26° 265° (W) 12:59:32 145.880/145.840
POPSAT HIP 1 03 Jul 12:53:23 12:57:01 26° 265° (W) 13:00:36 437.405
FUNcube-1 03 Jul 12:54:13 12:57:17 19° 293° (WNW) 13:00:15 145.935
CUBEBUG 1 03 Jul 12:56:26 13:00:42 50° 99° (E) 13:04:56 437.445
50 SAT 03 Jul 12:59:30 13:03:22 62° 286° (WNW) 13:07:14 437.505
PHONESAT 2.4 03 Jul 12:59:42 13:03:06 62° 179° (S) 13:06:33 2401.200-2431.200
VERMONT LUNAR 03 Jul 13:00:51 13:03:48 37° 196° (SSW) 13:06:46 437.305
ESTCUBE 1 03 Jul 13:01:41 13:06:14 69° 101° (ESE) 13:10:44 437.505/2401.250
UWE-3 03 Jul 13:04:22 13:06:11 12° 296° (WNW) 13:07:50 435.000/436.395/437.385
TISAT 1 03 Jul 13:15:28 13:17:50 15° 90° (E) 13:20:21 437.305
Oscar 19 03 Jul 13:16:05 13:20:02 23° 65° (ENE) 13:24:05 437.125/150
HO-68 03 Jul 13:17:00 13:18:16 10° 313° (NW) 13:19:05 435.675
VELOX 1 03 Jul 13:24:15 13:28:30 45° 289° (WNW) 13:32:41 145.980
DX 1 03 Jul 13:39:25 13:42:32 19° 295° (WNW) 13:45:30 434.975-435.025
SPROUT 03 Jul 14:03:12 14:07:30 80° 102° (ESE) 14:11:46 437.525
UKube-1 03 Jul 14:03:20 14:05:10 12° 298° (WNW) 14:06:49 .
ISS 03 Jul 14:05:35 14:08:07 20° 13° (NNE) 14:10:38 145.825
RS-15 03 Jul 14:07:29 14:18:18 43° 250° (WSW) 14:29:15 29.354- 29.394
AISAT 03 Jul 14:12:12 14:14:56 16° 296° (WNW) 14:17:29 437.250
CUBEBUG 1 03 Jul 14:33:54 14:36:42 16° 296° (WNW) 14:39:20 437.445
PHONESAT 2.4 03 Jul 14:37:40 14:40:56 40° 196° (SSW) 14:44:13 2401.200-2431.200
Cosmos 2499 03 Jul 14:38:14 14:40:27 11° 305° (NW) 14:42:12 435.465 / 435.565
VERMONT LUNAR 03 Jul 14:39:04 14:40:15 12° 210° (SSW) 14:41:21 437.305
ESTCUBE 1 03 Jul 14:40:16 14:42:35 14° 298° (WNW) 14:44:43 437.505/2401.250
BEESAT 03 Jul 14:41:51 14:45:35 23° 93° (E) 14:49:25 436.000
Gurwin Techsat 1B 03 Jul 14:49:52 14:54:58 50° 71° (ENE) 15:00:06 435.225
TISAT 1 03 Jul 14:49:53 14:53:55 46° 288° (WNW) 14:57:55 437.305
Oscar 19 03 Jul 14:54:12 14:59:08 46° 261° (W) 15:04:04 437.125/150
SWISSCUBE 03 Jul 14:56:49 15:01:12 35° 96° (E) 15:05:36 437.505
AO-7 03 Jul 14:58:30 15:04:33 24° 53° (NE) 15:10:52 29.400- 29.500
ITUPSAT 1 03 Jul 15:01:32 15:05:56 35° 96° (E) 15:10:20 437.325
ITAMSAT 1 03 Jul 15:02:45 15:07:53 63° 73° (ENE) 15:13:05 435.822/435.867
YUBILEINY 03 Jul 15:09:47 15:18:14 51° 74° (ENE) 15:26:45 435.215
Cosmos 2491 03 Jul 15:32:04 15:39:34 34° 85° (E) 15:47:15 435.465 / 435.565
JAS-2 03 Jul 15:33:56 15:38:26 32° 67° (ENE) 15:43:11 435.910
ISS 03 Jul 15:41:41 15:44:56 74° 32° (NNE) 15:48:10 145.825
SPROUT 03 Jul 15:42:03 15:43:01 10° 298° (WNW) 15:43:44 437.525
PCSat 03 Jul 15:51:40 15:54:51 17° 106° (ESE) 15:58:17 145.827
AIST 1 03 Jul 15:54:17 15:57:06 17° 87° (E) 16:00:05
HORYU 2 03 Jul 16:13:51 16:18:01 44° 71° (ENE) 16:22:15 437.375
KKS-1 03 Jul 16:14:18 16:18:20 34° 97° (E) 16:22:22 437.445
PHONESAT 2.4 03 Jul 16:16:45 16:18:27 13° 211° (SSW) 16:20:04 2401.200-2431.200
BEESAT 03 Jul 16:19:06 16:23:36 40° 290° (WNW) 16:28:02 436.000
Cosmos 2504 03 Jul 16:21:28 16:25:45 16° 60° (ENE) 16:30:36 435.465 / 435.565
Gurwin Techsat 1B 03 Jul 16:31:10 16:35:16 22° 269° (W) 16:39:15 435.225
SWISSCUBE 03 Jul 16:34:53 16:38:56 27° 293° (WNW) 16:42:53 437.505
BEESAT 3 03 Jul 16:37:20 16:40:56 30° 47° (NE) 16:44:31 437.485
ITUPSAT 1 03 Jul 16:39:38 16:43:42 27° 293° (WNW) 16:47:40 437.325
ITAMSAT 1 03 Jul 16:44:32 16:47:55 17° 271° (W) 16:51:05 435.822/435.867
BEESAT 2 03 Jul 16:47:57 16:51:36 30° 47° (NE) 16:55:13 435.950
AO-7 03 Jul 16:48:05 16:56:27 88° 252° (WSW) 17:04:54 29.400- 29.500
YUBILEINY 03 Jul 17:07:03 17:14:51 37° 274° (W) 17:22:30 435.215
STARS 03 Jul 17:08:51 17:13:15 82° 103° (ESE) 17:17:37 437.465
SO-50 03 Jul 17:15:29 17:18:54 21° 112° (ESE) 17:22:33 436.795
JAS-2 03 Jul 17:19:03 17:23:38 31° 266° (W) 17:28:19 435.910
ISS 03 Jul 17:19:15 17:20:58 13° 228° (SW) 17:22:36 145.825
O/OREOS (USA 219) 03 Jul 17:22:30 17:25:40 19° 53° (NE) 17:28:57 437.305
Cosmos 2491 03 Jul 17:27:28 17:36:06 55° 285° (WNW) 17:44:43 435.465 / 435.565
AIST 1 03 Jul 17:30:16 17:34:27 41° 283° (WNW) 17:38:39
PCSat 03 Jul 17:32:20 17:37:44 71° 301° (WNW) 17:43:11 145.827
CUTE-I 03 Jul 17:33:25 17:35:38 13° 58° (ENE) 17:38:06 437.470
KKS-1 03 Jul 17:51:15 17:54:49 24° 293° (WNW) 17:58:17 437.445
HORYU 2 03 Jul 17:51:51 17:54:56 18° 269° (W) 17:57:52 437.375
AIST 2 03 Jul 17:59:19 18:03:19 41° 50° (NE) 18:07:16 435.215
MOZHAYETS 4 03 Jul 18:00:07 18:04:39 49° 99° (E) 18:09:10
Cubesat XI-IV 03 Jul 18:04:59 18:09:09 24° 64° (ENE) 18:13:29 437.490
Cosmos 2504 03 Jul 18:12:47 18:20:31 81° 82° (E) 18:28:49 435.465 / 435.565
BEESAT 3 03 Jul 18:15:20 18:18:51 28° 245° (WSW) 18:22:14 437.485
BEESAT 2 03 Jul 18:26:05 18:29:36 27° 245° (WSW) 18:33:00 435.950
AO-7 03 Jul 18:45:00 18:50:34 18° 273° (W) 18:55:40 29.400- 29.500
STARS 03 Jul 18:47:53 18:49:08 11° 299° (WNW) 18:50:07 437.465
SO-50 03 Jul 18:54:28 18:59:07 52° 309° (NW) 19:03:55 436.795
O/OREOS (USA 219) 03 Jul 19:01:02 19:05:26 50° 252° (WSW) 19:09:49 437.305
CUTE-I 03 Jul 19:09:37 19:14:59 86° 75° (ENE) 19:20:24 437.470
BRITE-PL 03 Jul 19:17:00 19:19:29 14° 63° (ENE) 19:22:08 437.365/2234.400
PCSat 03 Jul 19:19:09 19:22:14 15° 324° (NW) 19:25:09 145.827
Cosmos 2491 03 Jul 19:33:18 19:35:39 11° 310° (NW) 19:37:20 435.465 / 435.565
MOZHAYETS 4 03 Jul 19:38:15 19:41:32 19° 295° (WNW) 19:44:40
AIST 2 03 Jul 19:38:28 19:41:39 21° 247° (WSW) 19:44:41 435.215
Cubesat XI-IV 03 Jul 19:43:49 19:49:00 48° 261° (W) 19:54:12 437.490
GONETS M04 03 Jul 19:46:38 19:52:45 21° 60° (ENE) 19:59:11
CUBESAT XI-V 03 Jul 20:01:00 20:05:43 76° 102° (ESE) 20:10:22 437.345
CUSAT 1 03 Jul 20:02:41 20:05:22 62° 78° (ENE) 20:07:56 437.405
HO-68 03 Jul 20:07:47 20:13:29 28° 60° (ENE) 20:19:22 435.675
Cosmos 2504 03 Jul 20:07:52 20:13:13 20° 278° (W) 20:18:24 435.465 / 435.565
COMPASS 1 03 Jul 20:30:34 20:31:48 11° 63° (ENE) 20:33:15 437.405
GOMX 1 03 Jul 20:32:45 20:37:30 39° 72° (ENE) 20:42:01 467.674
STRAND 1 03 Jul 20:33:21 20:38:23 53° 100° (E) 20:43:24 437.568
CUTE 1.7 + AOD 2 03 Jul 20:35:43 20:38:43 20° 67° (ENE) 20:41:52 437.475
CANX-2 03 Jul 20:38:35 20:41:54 23° 68° (ENE) 20:45:18 2200.000
PRISM 03 Jul 20:38:53 20:43:02 57° 101° (E) 20:47:10 437.425
SO-50 03 Jul 20:38:58 20:40:52 12° 331° (NNW) 20:42:39 436.795
CINEMA 3 03 Jul 20:39:20 20:41:04 12° 64° (ENE) 20:42:59 145.822/145.860
BRITE-PL 03 Jul 20:51:55 20:57:27 87° 253° (WSW) 21:02:40 437.365/2234.400
CUTE-I 03 Jul 20:53:38 20:55:53 12° 274° (W) 20:57:49 437.470
DANDE 03 Jul 21:00:49 21:03:14 24° 267° (W) 21:05:24 436.750
DOVE 4 03 Jul 21:21:01 21:25:54 72° 75° (ENE) 21:30:31 437.250
SEEDS 03 Jul 21:24:14 21:28:17 53° 74° (ENE) 21:32:25 437.485
CUBEBUG 2 03 Jul 21:32:04 21:35:09 20° 68° (ENE) 21:38:19 437.445
AAUSAT CUBESAT 2 03 Jul 21:37:35 21:41:35 50° 73° (ENE) 21:45:38 437.432
ZACube-1 03 Jul 21:38:58 21:41:15 15° 65° (ENE) 21:43:41 437.345
CUBESAT XI-V 03 Jul 21:40:24 21:42:35 13° 298° (WNW) 21:44:34 437.345
GONETS M04 03 Jul 21:42:11 21:50:56 85° 264° (W) 21:59:37
Oscar 11 03 Jul 21:48:01 21:51:47 31° 70° (ENE) 21:55:37 145.826/435.025
M-CUBED/EXP-1 PRIME 03 Jul 21:48:25 21:51:49 24° 100° (E) 21:55:29 437.505
HO-68 03 Jul 21:53:42 22:00:48 63° 258° (WSW) 22:07:54 435.675
DELFI C3 03 Jul 21:59:39 22:03:02 27° 70° (ENE) 22:06:30 145.870
COMPASS 1 03 Jul 22:02:50 22:06:57 70° 259° (WSW) 22:11:08 437.405
HUMSAT D 03 Jul 22:05:31 22:07:04 12° 64° (ENE) 22:08:48 437.325/437.525
CUTE 1.7 + AOD 2 03 Jul 22:10:31 22:14:25 37° 263° (W) 22:18:21 437.475
GOMX 1 03 Jul 22:11:26 22:15:44 25° 266° (W) 22:19:44 467.674
CINEMA 3 03 Jul 22:13:19 22:17:50 70° 259° (WSW) 22:22:12 145.822/145.860
STRAND 1 03 Jul 22:13:24 22:17:15 21° 296° (WNW) 22:20:56 437.568
FUNcube-1 03 Jul 22:13:51 22:17:37 33° 71° (ENE) 22:21:22 145.935
CANX-2 03 Jul 22:13:58 22:17:43 30° 265° (W) 22:21:27 2200.000
PRISM 03 Jul 22:15:48 22:18:03 14° 297° (WNW) 22:20:08 437.425
UWE-3 03 Jul 22:23:42 22:27:52 57° 74° (ENE) 22:32:00 435.000/436.395/437.385
Cosmos 2499 03 Jul 22:27:12 22:34:34 45° 74° (ENE) 22:42:31 435.465 / 435.565
BRITE-PL 03 Jul 22:34:55 22:36:40 11° 274° (W) 22:38:02 437.365/2234.400
VELOX 1 03 Jul 22:47:20 22:50:19 18° 65° (ENE) 22:53:26 145.980
AUBIESAT-1 03 Jul 22:48:59 22:53:12 89° 289° (WNW) 22:57:42 437.475
DX 1 03 Jul 22:58:32 23:02:38 41° 71° (ENE) 23:06:47 434.975-435.025
DOVE 4 03 Jul 23:02:03 23:04:10 12° 272° (W) 23:05:58 437.250
SEEDS 03 Jul 23:02:23 23:04:30 13° 271° (W) 23:06:24 437.485
CUBEBUG 2 03 Jul 23:07:40 23:11:41 36° 263° (W) 23:15:35 437.445
ZACube-1 03 Jul 23:13:09 23:17:16 51° 261° (W) 23:21:21 437.345
AAUSAT CUBESAT 2 03 Jul 23:15:21 23:17:33 14° 271° (W) 23:19:34 437.432
UKube-1 03 Jul 23:20:26 23:24:44 65° 74° (ENE) 23:29:04 .
M-CUBED/EXP-1 PRIME 03 Jul 23:22:52 23:26:40 34° 294° (WNW) 23:30:40 437.505
Oscar 11 03 Jul 23:24:30 23:28:01 24° 267° (W) 23:31:29 145.826/435.025
ANTELSAT 03 Jul 23:29:20 23:32:38 21° 93° (E) 23:36:04 437.575/2403.000
AISAT 03 Jul 23:32:35 23:36:57 54° 73° (ENE) 23:41:20 437.250
DELFI C3 03 Jul 23:34:51 23:38:08 23° 266° (W) 23:41:21 145.870
HUMSAT D 03 Jul 23:38:17 23:42:21 62° 259° (W) 23:46:25 437.325/437.525
GONETS M04 03 Jul 23:41:22 23:46:37 17° 282° (WNW) 23:51:21
TIGRISAT 03 Jul 23:41:44 23:45:27 27° 95° (E) 23:49:16 435.000
QB50P1 03 Jul 23:42:53 23:43:56 11° 88° (E) 23:45:14 145.935-145.965
50 SAT 03 Jul 23:43:59 23:47:48 77° 76° (ENE) 23:51:39 437.505
FUNcube-1 03 Jul 23:50:47 23:54:03 21° 267° (W) 23:57:11 145.935
CUBEBUG 1 03 Jul 23:53:00 23:57:15 46° 72° (ENE) 00:01:31 437.445
NANOSAT C BR1 03 Jul 23:56:10 23:58:40 16° 90° (E) 00:01:19 145.865
ESTCUBE 1 04 Jul 00:01:44 00:06:14 68° 75° (ENE) 00:10:47 437.505/2401.250
UWE-3 04 Jul 00:02:54 00:04:50 12° 271° (W) 00:06:32 435.000/436.395/437.385
DUCHIFAT 1 04 Jul 00:03:05 00:05:58 18° 92° (E) 00:08:57 145.980
POLYITAN 1 04 Jul 00:06:56 00:10:08 21° 93° (E) 00:13:26 437.675
TISAT 1 04 Jul 00:08:58 00:11:04 14° 64° (ENE) 00:13:21 437.305
Cosmos 2499 04 Jul 00:20:32 00:27:40 39° 271° (W) 00:35:11 435.465 / 435.565
UNISAT 6 04 Jul 00:20:41 00:25:04 75° 101° (E) 00:29:32 437.425
VELOX 1 04 Jul 00:22:14 00:26:33 47° 261° (W) 00:30:53 145.980
BUGSAT 1 04 Jul 00:23:21 00:26:17 19° 92° (E) 00:29:17 437.445
AUBIESAT-1 04 Jul 00:26:34 00:27:27 10° 302° (WNW) 00:28:08 437.475
DX 1 04 Jul 00:35:56 00:39:06 19° 268° (W) 00:42:09 434.975-435.025
QB50P2 04 Jul 00:36:09 00:40:13 45° 99° (E) 00:44:16 145.880/145.840
PCSat 04 Jul 00:37:02 00:40:55 20° 41° (NE) 00:44:55 145.827
POPSAT HIP 1 04 Jul 00:37:05 00:41:07 45° 99° (E) 00:45:10 437.405
SPROUT 04 Jul 00:57:44 01:02:01 67° 75° (ENE) 01:06:18 437.525
UKube-1 04 Jul 00:59:43 01:01:23 12° 272° (W) 01:02:48 .
ANTELSAT 04 Jul 01:05:30 01:09:33 37° 289° (WNW) 01:13:37 437.575/2403.000
AISAT 04 Jul 01:11:13 01:13:54 15° 270° (W) 01:16:24 437.250
QB50P1 04 Jul 01:16:08 01:20:19 64° 285° (WNW) 01:24:28 145.935-145.965
TIGRISAT 04 Jul 01:18:24 01:22:11 28° 291° (WNW) 01:25:56 435.000
NANOSAT C BR1 04 Jul 01:30:46 01:34:47 44° 288° (WNW) 01:38:47 145.865
CUBEBUG 1 04 Jul 01:30:53 01:33:53 17° 269° (W) 01:36:44 437.445
DUCHIFAT 1 04 Jul 01:38:03 01:41:57 38° 289° (WNW) 01:45:49 145.980
Cosmos 2491 04 Jul 01:41:42 01:46:49 17° 57° (ENE) 01:52:24 435.465 / 435.565
ESTCUBE 1 04 Jul 01:41:47 01:43:40 12° 272° (W) 01:45:19 437.505/2401.250
TISAT 1 04 Jul 01:42:14 01:46:25 58° 259° (W) 01:50:36 437.305
POLYITAN 1 04 Jul 01:42:20 01:46:08 33° 290° (WNW) 01:49:53 437.675
SO-50 04 Jul 01:45:10 01:49:24 27° 43° (NE) 01:53:38 436.795
BEESAT 04 Jul 01:48:59 01:53:03 29° 67° (ENE) 01:57:11 436.000
BUGSAT 1 04 Jul 01:58:11 02:01:53 33° 290° (WNW) 02:05:30 437.445
UNISAT 6 04 Jul 01:59:40 02:01:21 12° 297° (WNW) 02:02:50 437.425
SWISSCUBE 04 Jul 02:03:57 02:08:27 43° 70° (ENE) 02:13:01 437.505
ITUPSAT 1 04 Jul 02:08:56 02:13:26 44° 70° (ENE) 02:18:01 437.325
QB50P2 04 Jul 02:13:01 02:15:47 17° 295° (WNW) 02:18:25 145.880/145.840
POPSAT HIP 1 04 Jul 02:13:54 02:16:41 17° 295° (WNW) 02:19:20 437.405
PCSat 04 Jul 02:19:34 02:25:01 78° 242° (WSW) 02:30:25 145.827
RS-15 04 Jul 02:20:53 02:29:53 33° 107° (ESE) 02:39:25 29.354- 29.394
SPROUT 04 Jul 02:37:11 02:38:38 11° 272° (W) 02:39:49 437.525
Oscar 19 04 Jul 03:04:42 03:09:46 59° 101° (E) 03:14:50 437.125/150
Gurwin Techsat 1B 04 Jul 03:06:16 03:09:50 19° 90° (E) 03:13:34 435.225
KKS-1 04 Jul 03:13:06 03:17:07 35° 70° (ENE) 03:21:11 437.445
ITAMSAT 1 04 Jul 03:15:44 03:19:35 21° 92° (E) 03:23:32 435.822/435.867
SO-50 04 Jul 03:25:25 03:30:11 47° 242° (WSW) 03:34:51 436.795
BEESAT 04 Jul 03:26:33 03:30:49 32° 264° (W) 03:35:05 436.000
AIST 1 04 Jul 03:36:29 03:40:45 49° 78° (ENE) 03:44:57
Cosmos 2491 04 Jul 03:36:41 03:45:29 79° 80° (E) 03:54:13 435.465 / 435.565
SWISSCUBE 04 Jul 03:42:53 03:46:32 21° 268° (W) 03:50:05 437.505
ITUPSAT 1 04 Jul 03:47:56 03:51:34 21° 268° (W) 03:55:07 437.325
STARS 04 Jul 04:06:09 04:10:33 78° 75° (ENE) 04:14:57 437.465
YUBILEINY 04 Jul 04:11:21 04:19:43 57° 91° (E) 04:28:11 435.215
JAS-2 04 Jul 04:24:37 04:30:30 33° 95° (E) 04:37:03 435.910
RS-15 04 Jul 04:30:34 04:41:28 72° 308° (NW) 04:52:47 29.354- 29.394
Gurwin Techsat 1B 04 Jul 04:45:02 04:50:16 58° 288° (WNW) 04:55:28 435.225
Oscar 19 04 Jul 04:45:09 04:48:43 19° 297° (WNW) 04:52:08 437.125/150
AO-7 04 Jul 04:49:35 04:56:36 30° 94° (E) 05:03:47 29.400- 29.500
KKS-1 04 Jul 04:50:16 04:53:51 23° 266° (W) 04:57:21 437.445
ITAMSAT 1 04 Jul 04:54:21 04:59:24 50° 289° (WNW) 05:04:24 435.822/435.867
MOZHAYETS 4 04 Jul 05:02:37 05:07:01 49° 72° (ENE) 05:11:29
AIST 1 04 Jul 05:15:35 05:18:00 14° 274° (W) 05:20:13
Cosmos 2491 04 Jul 05:35:08 05:41:28 22° 280° (W) 05:47:25 435.465 / 435.565
HORYU 2 04 Jul 05:40:26 05:44:55 82° 101° (ESE) 05:49:24 437.375
YUBILEINY 04 Jul 06:09:22 06:17:04 33° 293° (WNW) 06:24:38 435.215
JAS-2 04 Jul 06:09:27 06:15:42 48° 290° (WNW) 06:22:36 435.910
STRAND 1 04 Jul 06:14:57 06:16:28 11° 58° (ENE) 06:18:16 437.568
MOZHAYETS 4 04 Jul 06:41:33 06:44:35 17° 270° (W) 06:47:28
AO-7 04 Jul 06:41:43 06:49:59 63° 293° (WNW) 06:58:09 29.400- 29.500
RS-15 04 Jul 06:47:02 06:56:23 29° 338° (NNW) 07:05:55 29.354- 29.394
Cosmos 2504 04 Jul 06:52:23 06:59:30 66° 94° (E) 07:06:37 435.465 / 435.565
CUBESAT XI-V 04 Jul 07:04:43 07:09:26 79° 76° (ENE) 07:14:11 437.345
HORYU 2 04 Jul 07:19:31 07:20:59 11° 299° (WNW) 07:22:14 437.375
CUTE-I 04 Jul 07:26:24 07:31:10 32° 95° (E) 07:35:57 437.470
PRISM 04 Jul 07:29:24 07:33:22 46° 72° (ENE) 07:37:25 437.425
CUSAT 1 04 Jul 07:29:54 07:31:33 11° 90° (E) 07:33:29 437.405
O/OREOS (USA 219) 04 Jul 07:36:27 07:39:10 16° 101° (E) 07:42:02 437.305
STRAND 1 04 Jul 07:49:47 07:54:56 81° 75° (ENE) 08:00:07 437.568
Cubesat XI-IV 04 Jul 08:00:06 08:05:29 66° 102° (ESE) 08:10:48 437.490
AUBIESAT-1 04 Jul 08:06:55 08:07:14 10° 58° (ENE) 08:07:42 437.475
BEESAT 3 04 Jul 08:07:52 08:11:41 41° 118° (ESE) 08:15:35 437.485
BEESAT 2 04 Jul 08:19:30 08:23:23 43° 118° (ESE) 08:27:20 435.950
ISS 04 Jul 08:22:24 08:24:13 14° 133° (SE) 08:26:07 145.825
DANDE 04 Jul 08:26:44 08:32:54 32° 94° (E) 08:37:59 436.750
AO-7 04 Jul 08:36:37 08:41:18 16° 314° (NW) 08:45:36 29.400- 29.500
M-CUBED/EXP-1 PRIME 04 Jul 08:38:08 08:40:57 27° 65° (ENE) 08:43:55 437.505
CUBESAT XI-V 04 Jul 08:46:11 08:47:33 11° 274° (W) 08:48:38 437.345
Cosmos 2504 04 Jul 08:48:06 08:53:39 22° 295° (WNW) 08:58:59 435.465 / 435.565
VERMONT LUNAR 04 Jul 08:48:33 08:51:05 23° 158° (SSE) 08:53:40 437.305
GONETS M04 04 Jul 08:50:02 08:56:12 23° 81° (E) 09:02:44
BRITE-PL 04 Jul 08:57:19 09:00:50 24° 93° (E) 09:04:17 437.365/2234.400
RS-15 04 Jul 09:04:51 09:13:43 25° 12° (NNE) 09:23:02 29.354- 29.394
CUTE-I 04 Jul 09:06:25 09:11:16 34° 293° (WNW) 09:16:00 437.470
PRISM 04 Jul 09:06:31 09:09:07 15° 269° (W) 09:11:34 437.425
CUSAT 1 04 Jul 09:07:26 09:14:03 87° 104° (ESE) 09:19:02 437.405
O/OREOS (USA 219) 04 Jul 09:13:55 09:18:14 48° 297° (WNW) 09:22:35 437.305
DOVE 4 04 Jul 09:20:46 09:23:11 15° 90° (E) 09:25:46 437.250
HO-68 04 Jul 09:21:18 09:26:51 25° 91° (E) 09:32:37 435.675
STRAND 1 04 Jul 09:32:40 09:34:53 12° 273° (W) 09:36:47 437.568
AIST 2 04 Jul 09:35:37 09:39:50 69° 122° (ESE) 09:44:07 435.215
AUBIESAT-1 04 Jul 09:38:19 09:41:33 54° 254° (WSW) 09:44:57 437.475
Cubesat XI-IV 04 Jul 09:41:26 09:45:07 18° 298° (WNW) 09:48:36 437.490
COMPASS 1 04 Jul 09:46:23 09:49:14 18° 91° (E) 09:52:12 437.405
BEESAT 3 04 Jul 09:46:31 09:49:49 23° 316° (NW) 09:53:05 437.485
CUTE 1.7 + AOD 2 04 Jul 09:54:44 09:58:38 34° 96° (E) 10:02:34 437.475
ISS 04 Jul 09:57:03 10:00:17 70° 328° (NNW) 10:03:32 145.825
CANX-2 04 Jul 09:57:57 10:02:00 41° 98° (E) 10:06:05 2200.000
BEESAT 2 04 Jul 09:58:21 10:01:39 22° 316° (NW) 10:04:54 435.950
CINEMA 3 04 Jul 10:07:51 10:11:10 23° 94° (E) 10:14:36 145.822/145.860
DANDE 04 Jul 10:09:13 10:16:03 43° 284° (WNW) 10:21:19 436.750
GOMX 1 04 Jul 10:11:49 10:16:04 84° 284° (WNW) 10:20:12 467.674
M-CUBED/EXP-1 PRIME 04 Jul 10:13:43 10:15:55 16° 263° (W) 10:18:05 437.505
UWE-3 04 Jul 10:15:33 10:16:00 10° 87° (E) 10:16:43 435.000/436.395/437.385
VERMONT LUNAR 04 Jul 10:24:38 10:27:42 54° 174° (S) 10:30:47 437.305
ANTELSAT 04 Jul 10:29:35 10:32:42 20° 67° (ENE) 10:35:55 437.575/2403.000
BRITE-PL 04 Jul 10:35:41 10:39:26 28° 291° (WNW) 10:42:59 437.365/2234.400
QB50P1 04 Jul 10:37:24 10:38:05 10° 62° (ENE) 10:39:00 145.935-145.965
PHONESAT 2.4 04 Jul 10:38:33 10:41:37 30° 160° (SSE) 10:44:42 2401.200-2431.200
TIGRISAT 04 Jul 10:41:36 10:45:07 26° 69° (ENE) 10:48:41 435.000
SEEDS 04 Jul 10:43:14 10:47:31 84° 283° (WNW) 10:51:47 437.485
GONETS M04 04 Jul 10:43:25 10:52:14 77° 280° (W) 11:01:01
NANOSAT C BR1 04 Jul 10:50:05 10:52:17 14° 64° (ENE) 10:54:39 145.865
CUSAT 1 04 Jul 10:54:14 10:56:56 13° 292° (WNW) 10:59:05 437.405
AAUSAT CUBESAT 2 04 Jul 10:54:58 10:59:12 89° 99° (E) 11:03:26 437.432
DUCHIFAT 1 04 Jul 10:56:40 10:59:16 16° 65° (ENE) 11:01:58 145.980
DOVE 4 04 Jul 10:57:19 11:01:16 42° 288° (WNW) 11:05:11 437.250
CUBEBUG 2 04 Jul 10:57:28 11:01:25 39° 98° (E) 11:05:27 437.445
POLYITAN 1 04 Jul 11:01:03 11:04:01 19° 66° (ENE) 11:07:04 437.675
ZACube-1 04 Jul 11:01:03 11:04:36 26° 95° (E) 11:08:16 437.345
Cosmos 2499 04 Jul 11:06:15 11:12:11 31° 87° (E) 11:18:20 435.465 / 435.565
HO-68 04 Jul 11:08:05 11:15:10 65° 290° (WNW) 11:22:13 435.675
Oscar 11 04 Jul 11:10:00 11:14:18 57° 100° (E) 11:18:34 145.826/435.025
DELFI C3 04 Jul 11:12:18 11:16:11 41° 98° (E) 11:20:03 145.870
BUGSAT 1 04 Jul 11:14:30 11:17:12 17° 66° (ENE) 11:20:00 437.445
AIST 2 04 Jul 11:16:00 11:18:55 17° 320° (NW) 11:21:42 435.215
RS-15 04 Jul 11:18:31 11:29:45 52° 43° (NE) 11:41:31 29.354- 29.394
UNISAT 6 04 Jul 11:20:22 11:24:39 71° 76° (ENE) 11:28:55 437.425
COMPASS 1 04 Jul 11:21:07 11:25:06 40° 288° (WNW) 11:29:03 437.405
HUMSAT D 04 Jul 11:22:10 11:25:08 19° 92° (E) 11:28:14 437.325/437.525
QB50P2 04 Jul 11:29:41 11:33:35 38° 71° (ENE) 11:37:33 145.880/145.840
POPSAT HIP 1 04 Jul 11:30:28 11:34:22 37° 71° (ENE) 11:38:19 437.405
CUTE 1.7 + AOD 2 04 Jul 11:31:01 11:34:23 22° 292° (WNW) 11:37:40 437.475
CANX-2 04 Jul 11:34:36 11:37:40 19° 293° (WNW) 11:40:38 2200.000
ISS 04 Jul 11:34:37 11:37:07 20° 347° (NNW) 11:39:37 145.825
FUNcube-1 04 Jul 11:36:52 11:41:03 65° 101° (E) 11:45:19 145.935
